Vorticity
8 0 -6 6 7 8 11 11 8 5 5 6 6 5 6 4 4 6 4 2 3 5 7 8 10 9 7 4 4 4 4 2 3 4 7 2 6 9 6 7 5 1 3 7 8
2 1 -10 -2 6 6 6 14 13 9 6 3 3 4 6 5 4 5 5 6 7 5 4 2 2 2 2 4 3 3 7 6 4 6 7 6 2 10 2 4 17 6 -1 2 3
14 10 9 7 13 6 4 7 10 10 9 7 8 6 4 7 4 6 6 4 5 7 9 10 10 10 9 9 9 5 2 4 5 6 4 4 7 7 3 7 18 9 1 4 5
0 3 5 2 0 7 1 4 9 8 8 8 6 4 5 5 4 2 5 4 2 4 6 5 5 5 6 6 5 6 9 6 8 9 7 7 7 5 3 14 8 14 6 1 6
8 16 12 9 4 6 5 3 2 13 9 7 7 5 5 3 6 7 5 -2 -2 2 6 6 4 3 3 5 9 10 7 8 9 9 8 9 7 6 -3 21 14 14 8 1 3
10 9 8 15 14 18 15 7 5 6 11 10 8 7 8 3 5 7 8 11 11 11 10 6 11 16 14 14 9 6 7 2 2 6 1 2 3 1 4 7 9 13 16 3 4
12 6 6 2 2 6 3 5 4 2 9 7 6 6 9 8 10 8 7 4 7 3 11 8 9 11 10 8 7 6 7 7 8 5 7 7 14 3 6 1 5 12 19 8 3
5 1 6 6 -4 -1 11 6 12 13 9 7 1 4 4 5 6 5 8 11 9 6 11 12 11 7 7 5 6 6 7 8 3 1 5 3 21 -8 6 5 7 4 9 19 7
6 6 3 2 5 9 7 6 6 11 9 14 10 11 7 11 12 9 8 9 13 14 13 11 8 6 9 8 8 7 10 8 7 4 1 1 10 4 5 5 3 -1 5 10 19
4 4 4 2 -2 5 10 7 4 13 4 2 15 14 9 9 10 9 10 13 13 11 8 7 9 6 3 9 7 7 9 6 5 0 -1 1 5 6 -3 2 -5 -2 -1 6 8
2 8 2 -0 -0 13 15 4 5 4 -8 11 6 9 9 8 10 9 10 13 8 6 5 8 4 5 3 3 1 1 3 4 7 6 4 1 5 7 3 2 4 3 4 -4 5
15 5 -3 6 9 5 11 -8 7 11 4 5 3 3 9 14 10 9 16 9 5 7 9 9 4 5 4 2 5 3 14 18 18 34 33 44 22 26 50 42 25 16 16 10 2
10 11 9 21 10 19 13 13 -13 -5 11 12 5 7 9 12 9 6 10 10 8 7 6 4 5 4 4 4 7 12 31 34 12 34 17 17 20 41 2 11 32 35 63 44 9
-5 8 0 28 -3 5 6 -2 -3 -7 14 8 8 10 8 13 7 7 10 6 5 5 6 3 6 6 12 20 29 56 7 15 26 -2 45 62 70 68 74 60 47 19 13 71 41
7 18 51 -24 -3 9 1 -2 8 14 10 20 14 14 16 21 21 12 8 10 8 6 4 10 8 13 26 32 17 6 9 15 20 28 -11 16 -6 51 59 75 59 60 46 50 56
4 16 12 -3 3 7 3 11 7 7 19 3 8 14 16 13 6 6 7 5 3 3 14 22 30 26 22 21 0 3 -11 26 -9 -8 0 5 21 -5 4 7 6 22 29 54 49
11 -12 3 -4 5 28 13 15 12 7 12 9 15 12 12 10 7 6 4 4 6 8 10 44 12 7 17 14 1 -6 23 22 -0 -11 26 31 25 9 17 6 33 28 22 27 26
9 5 18 13 30 6 6 12 8 7 18 26 11 18 5 8 6 4 4 5 7 21 31 24 -8 10 24 11 7 17 21 10 4 -4 9 6 22 8 -9 0 43 22 12 12 33
7 10 4 -9 11 15 11 11 8 16 20 17 11 5 6 5 5 6 9 12 26 20 16 25 10 20 30 16 7 6 10 7 2 9 12 5 5 10 9 14 59 15 3 18 24
4 8 24 8 9 12 -3 14 15 21 22 10 3 5 5 6 8 10 13 24 19 5 11 6 7 19 13 9 15 10 9 7 4 -9 -5 -21 22 14 13 10 9 68 31 -5 -4
-6 14 -22 23 15 6 8 20 20 20 7 2 5 7 7 7 10 12 15 16 14 -2 -0 -1 5 3 17 11 43 1 9 7 9 10 10 -17 5 39 1 13 11 8 45 40 11
19 22 14 30 9 8 16 20 22 6 2 5 6 8 8 9 11 13 8 7 12 6 0 3 -1 5 19 12 -1 -0 13 4 10 3 19 12 6 28 1 8 4 2 11 39 19
28 21 1 8 9 20 21 15 11 -0 5 6 11 6 8 9 11 8 7 8 17 21 6 9 7 4 -4 18 7 6 11 17 7 -13 22 4 25 53 8 21 6 26 2 8 3
18 26 17 20 11 20 18 4 5 0 6 9 9 5 8 7 6 3 3 4 7 8 20 31 26 7 3 12 4 17 23 11 17 13 -13 14 2 28 33 35 10 13 9 4 7
18 19 17 14 17 13 9 8 -0 5 8 10 4 6 6 6 2 1 3 3 3 4 7 3 31 24 3 13 -2 2 -1 20 11 11 6 2 6 19 9 12 10 49 36 11 13
17 18 14 2 12 16 9 5 4 7 10 5 8 6 4 3 3 4 4 7 6 7 9 4 38 39 -0 7 0 24 -6 9 14 12 1 3 7 -1 -2 22 -5 10 21 37 2
14 4 9 10 19 9 6 2 9 8 12 7 6 4 3 2 3 4 6 6 7 8 9 7 34 33 9 8 0 18 29 30 23 18 14 18 28 8 2 9 -5 12 20 27 25
Height
5769 5770 5769 5768 5769 5769 5769 5769 5769 5771 5773 5773 5774 5775 5774 5774 5775 5775 5776 5776 5776 5776 5776 5777 5778 5779 5779 5780 5781 5782 5783 5784 5785 5786 5787 5789 5791 5792 5794 5796 5799 5798 5798 5801 5803
5761 5762 5762 5762 5762 5763 5762 5762 5762 5763 5765 5766 5767 5768 5768 5767 5768 5769 5770 5769 5769 5768 5769 5769 5770 5771 5771 5772 5771 5773 5775 5775 5776 5774 5775 5776 5778 5780 5783 5787 5788 5790 5790 5791 5793
5752 5755 5755 5755 5755 5755 5756 5756 5756 5756 5757 5758 5758 5759 5760 5760 5761 5761 5761 5761 5761 5762 5762 5761 5761 5761 5761 5761 5761 5763 5765 5766 5765 5763 5763 5765 5768 5771 5775 5783 5779 5781 5779 5781 5785
5745 5745 5747 5747 5747 5747 5749 5749 5749 5749 5750 5750 5750 5750 5751 5751 5754 5752 5752 5753 5753 5753 5753 5752 5751 5751 5752 5751 5751 5752 5754 5753 5754 5753 5753 5752 5754 5762 5766 5777 5769 5769 5770 5772 5775
5737 5736 5738 5739 5739 5740 5741 5742 5742 5743 5743 5742 5742 5742 5743 5743 5744 5744 5743 5744 5745 5744 5743 5741 5741 5741 5741 5741 5740 5740 5743 5743 5741 5740 5741 5740 5742 5744 5758 5754 5757 5760 5760 5762 5764
5728 5729 5730 5730 5731 5731 5732 5734 5734 5734 5734 5735 5735 5735 5735 5735 5735 5735 5735 5735 5734 5734 5733 5732 5731 5730 5730 5730 5730 5730 5731 5731 5730 5728 5726 5727 5732 5729 5747 5742 5744 5746 5751 5753 5755
5719 5721 5722 5724 5724 5724 5724 5725 5726 5727 5726 5727 5727 5726 5726 5727 5726 5727 5726 5724 5724 5724 5723 5721 5721 5721 5720 5719 5719 5719 5720 5722 5719 5717 5715 5710 5721 5722 5723 5719 5730 5731 5735 5737 5743
5711 5711 5713 5715 5716 5716 5716 5717 5717 5718 5718 5718 5717 5718 5716 5717 5716 5717 5716 5715 5714 5714 5713 5711 5710 5710 5709 5708 5707 5706 5708 5709 5708 5707 5705 5693 5705 5710 5703 5703 5712 5718 5720 5723 5727
5700 5702 5704 5705 5706 5706 5707 5709 5710 5710 5710 5709 5708 5707 5707 5706 5706 5706 5705 5706 5705 5704 5703 5702 5701 5700 5697 5695 5695 5694 5694 5693 5695 5694 5684 5672 5683 5699 5684 5688 5692 5695 5702 5706 5713
5687 5690 5693 5695 5695 5697 5698 5700 5701 5701 5700 5699 5699 5700 5697 5696 5695 5695 5696 5696 5696 5695 5694 5693 5690 5687 5685 5684 5682 5678 5676 5675 5678 5680 5664 5653 5652 5674 5670 5661 5671 5673 5679 5686 5695
5676 5679 5682 5683 5685 5685 5688 5690 5692 5693 5691 5690 5689 5689 5689 5688 5687 5686 5687 5686 5686 5685 5685 5683 5680 5675 5672 5669 5667 5663 5657 5651 5654 5654 5639 5629 5625 5628 5650 5632 5641 5644 5650 5662 5672
5665 5666 5669 5673 5675 5674 5677 5680 5682 5683 5682 5680 5678 5679 5679 5679 5678 5678 5680 5679 5677 5675 5674 5673 5667 5663 5659 5655 5654 5649 5633 5630 5624 5624 5605 5605 5595 5595 5592 5602 5594 5602 5611 5628 5646
5651 5656 5659 5661 5663 5665 5665 5669 5670 5671 5672 5672 5669 5669 5669 5670 5669 5669 5671 5670 5668 5666 5664 5660 5655 5650 5646 5637 5634 5636 5615 5613 5603 5603 5601 5578 5563 5571 5565 5552 5561 5558 5572 5590 5616
5638 5644 5648 5652 5653 5655 5657 5657 5658 5660 5662 5662 5661 5659 5660 5661 5659 5661 5662 5662 5659 5657 5654 5649 5642 5640 5634 5625 5618 5620 5610 5603 5598 5587 5577 5571 5532 5548 5537 5521 5529 5538 5542 5556 5582
5626 5632 5634 5639 5641 5642 5646 5647 5647 5650 5651 5652 5651 5651 5652 5652 5651 5651 5653 5651 5648 5647 5645 5637 5631 5627 5622 5614 5608 5610 5604 5599 5592 5581 5572 5565 5542 5524 5511 5509 5509 5516 5525 5538 5559
5615 5620 5624 5627 5629 5632 5634 5637 5637 5640 5639 5642 5642 5642 5643 5644 5645 5645 5645 5644 5641 5637 5632 5625 5620 5616 5612 5608 5603 5603 5598 5594 5590 5581 5570 5559 5545 5531 5521 5514 5514 5514 5516 5526 5546
5603 5606 5613 5616 5620 5622 5622 5626 5629 5629 5632 5635 5634 5635 5636 5637 5638 5638 5636 5634 5632 5630 5625 5620 5613 5610 5607 5604 5602 5600 5595 5591 5586 5576 5566 5556 5548 5536 5528 5521 5521 5517 5523 5532 5546
5589 5597 5602 5607 5607 5606 5614 5618 5618 5621 5624 5626 5628 5629 5631 5632 5632 5631 5629 5625 5622 5618 5614 5614 5610 5605 5602 5600 5600 5595 5592 5587 5581 5574 5563 5559 5550 5543 5536 5531 5525 5527 5532 5540 5550
5578 5585 5590 5594 5596 5601 5604 5607 5611 5613 5615 5618 5620 5624 5626 5627 5626 5624 5621 5616 5613 5611 5610 5608 5606 5601 5599 5597 5596 5591 5588 5585 5577 5573 5563 5559 5554 5542 5542 5539 5534 5537 5539 5546 5555
5567 5572 5576 5583 5588 5591 5597 5600 5603 5605 5609 5612 5616 5619 5620 5620 5621 5618 5614 5611 5608 5605 5605 5605 5606 5600 5596 5593 5592 5589 5586 5582 5578 5569 5565 5559 5556 5550 5547 5546 5543 5543 5549 5554 5562
5556 5562 5568 5574 5578 5583 5589 5592 5594 5598 5604 5609 5612 5614 5615 5615 5614 5611 5608 5605 5604 5603 5603 5603 5601 5599 5592 5590 5588 5586 5582 5580 5577 5574 5568 5561 5557 5552 5550 5551 5553 5553 5553 5558 5566
5546 5552 5558 5563 5570 5575 5581 5584 5590 5594 5598 5603 5606 5609 5610 5610 5607 5604 5602 5602 5601 5601 5601 5599 5596 5594 5591 5589 5587 5583 5579 5579 5576 5574 5570 5564 5559 5555 5554 5554 5554 5557 5562 5563 5568
5538 5544 5550 5558 5564 5569 5573 5579 5584 5589 5595 5599 5602 5603 5605 5604 5603 5600 5600 5601 5599 5598 5596 5593 5591 5590 5588 5587 5584 5580 5576 5576 5575 5573 5571 5567 5563 5556 5556 5557 5557 5560 5561 5565 5569
5534 5540 5546 5551 5558 5563 5569 5574 5579 5585 5590 5594 5597 5599 5600 5599 5597 5598 5599 5598 5596 5594 5591 5588 5586 5585 5585 5583 5580 5577 5574 5573 5573 5574 5572 5568 5566 5560 5559 5558 5560 5559 5562 5565 5569
5530 5534 5541 5546 5553 5559 5564 5570 5576 5583 5586 5589 5592 5595 5595 5594 5594 5596 5596 5594 5593 5590 5586 5583 5579 5577 5579 5579 5577 5573 5573 5572 5571 5572 5572 5569 5567 5564 5562 5559 5558 5558 5560 5560 5563
5525 5532 5536 5542 5549 5555 5561 5568 5574 5578 5582 5585 5588 5590 5590 5591 5592 5594 5592 5591 5590 5587 5583 5579 5573 5571 5575 5576 5576 5573 5572 5572 5570 5571 5571 5568 5567 5566 5563 5561 5560 5558 5556 5559 5558
5521 5527 5533 5540 5547 5553 5559 5566 5570 5574 5579 5582 5584 5585 5586 5588 5591 5590 5589 5589 5588 5585 5581 5577 5572 5570 5572 5574 5575 5574 5572 5569 5568 5569 5570 5569 5566 5565 5564 5563 5561 5560 5559 5559 5558